Wind_Speed
22 20 19 17 15 14 12 12 11 12 12 13 13 14 14 15 16 17 17 18 19 20 21 21 22 23 24 25 26 27 28 28 29 30 32 33 34 36 37 39 40 42 44 45 47 49 50 52 54 55 57 58
22 21 19 17 16 14 13 13 13 13 14 14 15 16 16 17 18 19 19 20 21 21 22 22 23 24 25 26 26 27 28 29 30 31 33 34 36 37 39 40 42 44 46 48 49 51 53 54 56 57 59 60
23 21 20 18 16 15 14 14 14 14 15 15 16 17 18 19 20 20 21 21 22 22 22 23 24 25 26 27 28 29 30 31 32 33 34 36 38 39 41 42 44 46 48 49 51 53 54 56 57 59 60 61
23 22 20 18 16 15 15 15 15 15 16 16 17 18 19 20 21 21 22 22 22 23 23 24 25 27 28 29 30 31 32 33 34 35 37 38 39 41 42 44 46 48 49 51 52 54 55 56 57 58 59 60
24 22 20 18 17 16 16 16 17 17 17 18 19 19 20 21 22 23 24 24 24 24 25 26 27 28 30 31 32 33 34 35 36 37 38 39 41 42 44 46 47 49 50 52 53 54 55 56 57 57 58 59
25 23 21 19 18 17 17 18 19 19 19 20 20 21 21 22 23 24 25 26 26 27 27 28 29 30 31 32 33 34 35 36 37 38 40 41 43 44 46 47 49 50 51 52 53 54 55 56 56 58 59 60
26 24 22 21 20 19 19 20 20 21 21 21 22 22 23 24 25 25 26 27 28 28 29 30 31 32 33 34 35 36 37 38 39 40 42 43 45 46 48 49 50 51 52 52 53 54 55 56 57 59 60 62
27 25 24 22 22 21 21 22 22 22 22 23 23 24 25 26 27 27 28 28 29 30 31 32 33 34 35 36 36 37 38 39 41 43 44 46 47 49 50 51 51 52 53 53 54 56 57 58 60 61 62 64
28 27 25 24 23 23 23 23 24 24 24 24 25 26 27 28 29 29 30 30 31 31 33 34 35 36 37 37 38 39 40 42 44 45 47 48 49 50 51 52 53 54 55 56 57 58 60 61 63 64 65 66
29 28 27 25 25 24 24 25 25 25 26 26 27 28 29 30 30 31 31 32 32 33 34 36 37 38 38 39 40 41 43 44 46 48 49 50 51 52 53 54 55 56 57 59 60 61 62 64 65 66 67 68
30 30 28 27 26 26 26 26 27 27 27 27 28 29 30 31 32 32 33 33 34 34 36 38 39 39 40 40 42 44 45 46 48 49 51 52 52 53 54 55 56 58 60 61 63 64 65 66 67 68 70 71
32 31 30 29 28 28 28 28 28 28 28 29 30 31 32 33 33 33 34 35 35 36 37 39 40 41 41 42 44 45 47 48 49 51 52 53 54 55 56 57 59 61 62 64 65 66 67 68 70 71 72 73
33 33 31 30 30 29 29 29 29 29 30 31 31 32 33 33 34 35 36 37 36 37 39 40 41 42 42 44 46 47 48 49 51 52 53 55 56 57 59 60 62 64 65 66 68 69 70 71 72 73 75 76
35 34 33 32 31 31 30 30 30 31 32 32 33 34 34 34 35 36 38 37 37 38 40 41 41 42 44 46 47 48 49 50 52 53 55 56 57 59 60 62 64 66 67 69 70 71 72 73 74 75 76 77
36 35 34 33 32 32 32 31 32 32 33 34 35 35 35 35 36 39 40 38 38 40 41 42 42 44 46 47 49 50 51 52 53 55 56 58 59 61 63 65 66 68 70 71 72 73 75 76 76 77 78 78
38 37 35 34 34 33 33 32 33 34 35 36 36 36 36 36 38 40 42 40 40 42 43 43 44 45 48 49 50 51 52 53 54 56 58 59 61 63 65 67 68 70 71 73 74 76 77 78 78 79 79 80
39 38 37 36 35 34 34 33 34 35 36 37 37 37 37 37 38 42 43 42 43 44 44 45 46 48 50 51 52 53 54 55 56 57 59 61 63 65 67 69 70 72 73 75 77 78 79 79 80 80 81 81
39 39 38 37 36 35 35 35 35 36 37 38 39 38 38 39 40 43 44 44 44 45 45 46 48 50 52 53 53 54 55 56 57 59 61 63 65 67 69 71 72 74 75 77 79 80 80 81 81 82 82 83
40 40 39 38 37 37 36 36 36 37 38 39 40 40 40 40 41 43 45 45 46 46 46 48 50 52 54 54 55 55 56 57 59 61 62 64 66 68 70 72 73 75 77 79 81 82 82 83 83 84 84 84
41 41 40 39 38 38 38 37 38 39 39 40 41 41 42 41 42 44 46 46 46 46 48 50 52 54 56 56 56 56 57 59 61 62 64 66 68 70 71 73 75 77 79 81 83 84 84 84 85 85 85 85
42 41 41 40 39 39 39 39 39 40 41 41 42 42 43 43 44 45 47 47 47 47 49 52 54 56 57 57 57 58 59 61 62 64 66 67 69 71 72 74 77 79 81 83 85 86 86 86 86 86 86 86
42 42 42 41 40 40 40 41 41 41 42 43 43 43 44 45 45 46 47 48 48 49 51 54 55 57 59 59 59 60 61 62 63 66 68 69 70 72 74 76 79 81 83 85 86 87 87 87 87 87 87 87
43 43 43 42 42 42 42 42 42 43 43 44 45 45 45 46 46 47 48 49 50 51 53 55 57 58 59 60 61 62 63 64 65 67 69 70 72 74 76 78 80 83 85 86 87 88 88 88 88 88 88 89
45 44 44 44 43 43 43 44 44 44 45 46 46 47 47 47 47 48 50 51 51 53 54 56 57 59 60 61 62 64 65 65 66 68 70 72 73 75 78 80 82 84 86 87 87 88 88 88 88 89 89 90
46 45 45 45 45 45 45 45 46 46 46 47 48 48 49 49 48 49 51 52 53 53 54 56 58 60 61 62 64 65 66 66 68 69 71 73 75 77 80 81 83 85 86 87 88 88 88 89 89 90 90 91
47 47 46 47 47 47 47 47 47 47 48 48 49 49 50 50 49 50 52 53 53 53 54 56 59 61 61 63 66 67 67 68 69 71 73 75 77 79 81 83 84 86 87 88 88 89 89 90 90 91 92 93
48 48 48 48 48 48 48 48 48 48 49 50 50 50 51 51 50 51 53 54 54 54 55 57 59 61 62 64 67 68 69 70 71 72 75 77 79 81 82 84 85 86 87 88 89 89 90 90 91 92 93 94
49 49 50 50 50 50 50 50 50 50 50 51 51 51 51 51 51 52 54 55 55 56 57 59 60 62 63 66 68 70 71 71 72 74 77 79 81 82 83 85 86 87 89 89 90 90 91 92 92 93 94 95
51 51 51 52 52 51 51 51 51 51 51 52 52 52 51 51 52 54 55 56 56 57 59 60 61 63 64 67 69 71 72 72 73 76 78 81 82 83 85 86 88 89 90 90 91 92 93 94 95 96 96 97
52 52 53 53 53 52 52 52 52 52 52 52 52 52 52 52 53 55 57 57 57 58 60 61 63 64 66 69 71 73 73 74 75 77 79 82 83 85 86 88 89 90 91 92 93 95 96 97 98 98 98 99
53 54 54 54 54 53 53 53 53 53 53 53 53 52 52 52 54 56 58 57 58 59 61 63 64 66 68 71 72 74 75 75 77 78 81 83 84 86 88 89 90 91 93 94 96 98 99 100 100 100 100 101
Wind_Direction
275 273 273 274 276 278 283 287 291 294 296 298 298 298 297 295 294 293 294 293 293 293 294 294 294 294 294 294 294 293 293 293 293 292 292 292 292 292 292 292 292 291 291 291 290 290 290 289 289 289 289 289
272 271 271 272 275 279 283 288 291 294 297 299 299 299 297 297 295 295 294 293 293 293 293 294 294 294 293 293 292 291 292 292 292 293 293 294 294 294 293 293 293 293 292 292 292 292 292 292 292 292 292 292
269 269 270 272 276 280 285 289 292 295 296 297 297 296 296 296 295 294 292 291 291 291 291 291 291 291 290 290 290 291 292 293 295 295 296 296 296 296 295 295 295 295 295 295 295 295 295 294 294 294 293 293
268 269 271 273 277 280 285 288 289 289 290 291 293 294 295 295 294 292 290 288 287 287 288 288 289 289 290 290 291 293 295 296 297 298 298 298 298 298 298 298 298 298 298 297 297 296 296 295 294 293 293 292
268 269 270 272 275 278 280 282 283 283 284 286 289 292 295 295 293 290 287 285 284 284 286 289 290 291 292 293 294 295 297 298 299 299 300 300 300 300 300 300 300 300 299 298 297 296 295 295 294 294 294 294
267 268 269 270 272 273 275 276 277 278 280 283 287 290 293 294 292 290 287 285 285 286 288 291 293 294 294 295 296 297 298 299 300 301 302 302 303 303 302 302 301 300 300 299 299 298 298 298 298 298 298 298
266 266 267 268 269 270 271 273 275 277 280 283 287 291 293 293 293 293 291 289 288 288 290 292 294 294 295 296 297 298 300 301 302 303 304 304 304 304 304 303 303 303 303 303 303 303 303 303 303 303 303 302
265 265 265 266 268 269 270 272 274 277 281 285 288 291 292 293 293 293 293 292 290 290 291 293 294 295 296 297 299 300 302 303 304 305 305 305 306 306 306 307 307 307 308 308 308 308 307 307 307 306 306 305
264 264 264 265 267 268 270 272 275 278 282 285 288 290 292 293 293 294 294 294 293 292 293 295 296 297 298 300 302 303 304 305 306 306 307 308 309 310 310 310 311 311 311 311 311 311 310 310 309 309 308 307
263 263 264 265 266 268 269 272 276 280 283 286 289 292 293 294 294 294 295 296 296 295 296 298 298 299 301 302 303 304 306 307 308 309 310 311 312 312 313 313 313 313 313 313 313 313 312 311 311 310 309 308
262 262 264 265 266 267 270 273 277 280 284 288 291 293 294 294 294 294 295 297 297 296 298 299 299 300 301 303 304 306 308 309 310 311 312 313 313 314 314 314 315 315 315 315 315 314 314 313 312 312 311 310
261 262 263 265 266 268 270 274 278 282 285 288 291 293 294 295 294 294 295 296 297 296 297 298 298 300 301 303 306 308 309 310 311 312 313 314 314 314 315 315 316 316 316 316 316 316 315 315 314 314 313 312
260 262 264 265 267 269 271 275 279 283 286 289 292 293 294 294 293 293 293 295 296 296 296 297 298 300 302 304 307 309 310 311 311 312 313 314 314 315 316 317 317 317 317 318 318 318 317 317 316 315 314 313
260 262 264 266 267 270 273 277 281 284 287 290 292 294 294 293 292 292 293 295 296 295 296 297 298 300 302 305 307 309 310 311 311 312 313 314 315 316 317 317 318 318 318 319 319 319 319 319 318 317 315 314
260 262 264 266 268 271 275 279 283 286 289 291 293 294 294 293 292 292 294 296 297 296 297 298 299 301 303 305 307 309 310 311 311 312 313 314 315 316 317 318 318 319 319 320 320 321 320 320 319 317 316 314
260 262 265 266 269 272 276 280 284 287 290 292 293 294 294 293 293 294 296 298 299 298 298 299 300 302 304 306 307 309 310 311 312 312 313 314 316 317 318 318 319 319 320 320 321 321 321 320 319 317 316 314
260 263 265 267 270 273 277 281 285 288 290 292 293 294 294 294 293 294 297 299 300 299 299 300 301 303 305 306 307 309 310 311 311 312 313 315 316 317 318 318 319 319 320 321 321 321 321 320 319 318 316 315
261 263 266 267 270 274 277 281 285 288 290 291 293 293 294 293 293 293 297 299 300 299 298 299 301 303 305 306 307 309 310 311 311 312 313 315 316 317 318 318 319 319 320 321 321 321 321 320 319 317 316 315
262 264 266 268 271 274 277 281 284 287 289 291 292 293 293 293 292 293 297 299 299 297 297 298 300 302 304 306 307 309 310 311 311 312 314 315 316 317 317 318 318 319 319 320 321 321 321 320 319 317 316 315
262 264 266 269 271 274 277 281 284 286 289 290 292 292 293 293 292 294 297 298 297 296 295 297 300 302 304 306 308 309 309 310 311 312 314 315 316 316 317 317 317 318 319 320 321 321 321 320 318 317 316 315
263 265 267 269 272 275 277 280 283 286 288 290 291 292 293 293 292 294 297 297 296 294 295 297 300 302 304 306 308 309 309 310 311 313 314 315 315 315 316 316 317 318 319 320 321 321 320 319 318 317 316 315
263 265 267 269 272 275 278 280 283 286 288 290 291 291 292 293 293 294 296 296 294 293 294 297 300 303 305 307 308 308 309 310 311 312 314 314 314 314 315 316 317 318 319 320 321 321 320 320 319 317 316 315
263 265 267 269 272 275 278 281 283 286 288 289 291 291 291 292 292 293 295 294 292 292 294 297 300 303 305 307 307 308 309 310 311 312 313 313 313 314 315 316 317 318 319 321 321 321 320 320 319 317 316 316
263 265 268 270 272 275 278 281 283 285 287 289 290 291 291 291 291 292 294 293 291 291 294 297 300 302 305 305 306 307 309 310 310 311 311 312 313 314 315 316 317 318 320 321 321 321 320 319 318 317 317 317
263 265 268 270 273 275 278 280 283 285 287 289 290 291 291 291 291 291 293 293 291 291 294 297 299 301 303 304 304 306 308 309 309 310 310 312 313 314 315 316 317 319 320 321 321 321 320 319 319 318 317 317
263 266 268 270 272 275 278 280 282 284 286 288 289 291 291 291 291 292 293 293 291 291 293 296 297 300 302 302 304 306 308 308 309 309 310 311 313 314 315 316 318 319 321 321 321 320 320 320 319 319 318 317
263 265 268 270 272 274 277 279 281 284 286 288 289 290 291 291 291 293 294 293 290 291 293 296 298 300 300 300 303 306 307 307 308 308 310 312 313 314 315 317 318 320 320 321 320 320 320 320 319 318 318 317
263 265 267 269 272 274 276 279 281 283 286 287 289 290 290 291 292 293 294 293 291 291 294 297 299 299 299 300 302 304 305 307 307 308 310 312 313 314 315 317 318 319 320 320 320 320 320 320 319 318 317 317
263 265 267 269 272 274 276 279 281 283 285 287 289 290 290 291 292 293 294 293 291 292 295 297 298 299 299 300 302 303 305 306 307 308 310 312 313 314 315 317 318 319 319 320 320 320 320 320 319 318 318 318
264 266 268 270 272 274 276 278 281 283 285 286 288 289 289 290 291 292 293 293 292 293 294 296 298 298 298 299 301 303 304 305 307 309 311 312 313 314 315 317 318 319 319 320 320 320 320 320 320 320 320 320
264 266 268 270 272 274 276 279 281 282 284 286 288 288 289 290 291 292 292 292 292 293 294 296 297 298 298 299 301 302 304 305 307 309 311 312 313 314 315 316 317 319 319 320 321 321 321 320 321 321 321 321
Height
10720 10719 10718 10716 10716 10715 10714 10714 10713 10712 10712 10711 10710 10709 10708 10707 10707 10706 10706 10705 10704 10704 10703 10703 10703 10702 10701 10700 10700 10699 10699 10699 10698 10698 10698 10697 10696 10695 10694 10693 10692 10691 10689 10688 10686 10685 10683 10681 10679 10677 10675 10673
10718 10717 10716 10715 10714 10713 10713 10712 10711 10711 10710 10709 10708 10707 10707 10706 10705 10705 10704 10703 10703 10702 10702 10701 10700 10700 10699 10698 10697 10697 10696 10696 10696 10695 10695 10694 10693 10692 10691 10690 10688 10686 10685 10683 10681 10680 10678 10676 10673 10671 10669 10666
10716 10715 10714 10713 10712 10711 10711 10710 10710 10709 10708 10707 10707 10706 10705 10704 10704 10703 10702 10701 10701 10700 10700 10699 10698 10697 10696 10696 10695 10694 10694 10693 10693 10692 10692 10691 10690 10688 10687 10686 10684 10682 10680 10678 10677 10674 10672 10670 10668 10665 10663 10660
10714 10713 10712 10711 10710 10710 10709 10709 10708 10707 10707 10706 10705 10704 10704 10703 10702 10701 10700 10699 10699 10698 10698 10697 10696 10695 10694 10693 10692 10691 10691 10690 10690 10689 10688 10687 10686 10684 10683 10681 10679 10677 10676 10673 10671 10669 10667 10664 10662 10659 10657 10654
10711 10710 10710 10709 10708 10708 10707 10707 10706 10706 10705 10704 10704 10703 10702 10701 10700 10699 10698 10697 10697 10696 10695 10694 10693 10692 10691 10690 10689 10688 10688 10687 10686 10685 10684 10683 10681 10680 10678 10676 10675 10673 10671 10669 10666 10664 10661 10659 10656 10654 10651 10648
10709 10708 10707 10707 10706 10706 10706 10705 10705 10704 10703 10703 10702 10701 10700 10699 10698 10697 10696 10695 10694 10693 10692 10691 10690 10689 10688 10687 10686 10685 10684 10683 10682 10681 10680 10678 10677 10675 10673 10672 10670 10668 10665 10663 10661 10658 10655 10652 10650 10647 10644 10641
10707 10706 10705 10704 10704 10704 10703 10703 10703 10702 10701 10700 10699 10698 10697 10696 10695 10694 10693 10692 10691 10691 10689 10688 10687 10686 10685 10684 10683 10682 10681 10680 10678 10677 10675 10674 10672 10671 10669 10667 10665 10662 10660 10657 10654 10652 10649 10646 10643 10640 10637 10634
10704 10703 10703 10702 10702 10702 10701 10701 10700 10699 10699 10698 10697 10696 10695 10693 10692 10691 10690 10689 10688 10688 10687 10685 10684 10683 10682 10681 10679 10678 10677 10676 10674 10673 10671 10669 10667 10666 10663 10661 10659 10656 10654 10651 10648 10645 10642 10639 10636 10633 10630 10627
10702 10701 10700 10700 10699 10699 10699 10698 10698 10697 10696 10695 10694 10693 10692 10690 10689 10688 10687 10686 10685 10684 10683 10682 10681 10679 10678 10677 10676 10674 10673 10671 10669 10668 10666 10664 10662 10660 10658 10655 10652 10650 10647 10645 10642 10639 10636 10633 10629 10626 10622 10619
10699 10698 10698 10697 10697 10697 10696 10696 10695 10694 10693 10692 10691 10690 10688 10687 10686 10685 10684 10683 10682 10681 10680 10678 10676 10675 10674 10672 10671 10670 10668 10666 10664 10662 10660 10658 10656 10654 10652 10649 10646 10644 10641 10638 10635 10632 10629 10626 10622 10619 10615 10611
10696 10696 10695 10695 10694 10694 10694 10693 10692 10691 10690 10689 10688 10686 10685 10684 10683 10682 10681 10680 10679 10677 10676 10674 10672 10671 10670 10668 10666 10665 10663 10661 10659 10657 10655 10653 10651 10648 10646 10644 10641 10638 10635 10632 10629 10626 10622 10619 10615 10611 10606 10602
10694 10693 10692 10692 10692 10691 10691 10690 10689 10688 10687 10686 10685 10683 10682 10681 10680 10678 10677 10676 10675 10674 10672 10670 10668 10667 10665 10664 10662 10660 10658 10656 10654 10652 10650 10648 10645 10643 10640 10638 10635 10632 10629 10625 10622 10618 10615 10611 10606 10602 10597 10593
10691 10690 10690 10689 10689 10688 10688 10687 10686 10685 10684 10683 10682 10680 10679 10677 10676 10675 10674 10673 10672 10670 10668 10666 10665 10663 10661 10659 10657 10655 10653 10651 10649 10647 10644 10642 10639 10637 10634 10631 10628 10625 10622 10618 10614 10611 10606 10602 10598 10593 10589 10584
10688 10687 10687 10686 10686 10685 10685 10684 10683 10682 10681 10680 10678 10677 10675 10674 10673 10671 10670 10670 10668 10667 10664 10662 10661 10659 10657 10655 10653 10651 10649 10646 10644 10641 10639 10636 10633 10631 10628 10625 10621 10618 10614 10611 10607 10602 10598 10594 10589 10585 10580 10575
10685 10684 10684 10683 10683 10682 10681 10681 10680 10678 10677 10676 10675 10673 10672 10670 10669 10667 10666 10665 10664 10662 10660 10658 10656 10654 10652 10650 10648 10646 10643 10641 10638 10635 10633 10630 10627 10624 10621 10618 10615 10611 10607 10603 10599 10595 10590 10586 10581 10576 10572 10567
10681 10681 10681 10680 10680 10679 10678 10677 10676 10675 10674 10672 10671 10670 10668 10667 10665 10663 10662 10661 10659 10658 10656 10654 10652 10650 10647 10645 10643 10641 10638 10635 10633 10630 10627 10624 10621 10618 10615 10611 10608 10604 10600 10596 10591 10587 10582 10578 10573 10568 10563 10558
10678 10678 10677 10677 10676 10675 10675 10674 10673 10671 10670 10668 10667 10666 10664 10663 10661 10659 10657 10656 10655 10653 10651 10649 10647 10645 10642 10640 10638 10635 10633 10630 10627 10624 10621 10618 10615 10612 10608 10605 10601 10597 10593 10588 10584 10580 10575 10570 10565 10560 10555 10550
10675 10674 10674 10673 10673 10672 10671 10670 10669 10668 10666 10665 10663 10662 10660 10659 10657 10655 10653 10652 10650 10648 10646 10644 10642 10639 10637 10635 10633 10630 10627 10624 10621 10618 10615 10612 10609 10605 10602 10598 10594 10590 10586 10582 10577 10573 10568 10563 10558 10552 10547 10542
10671 10670 10670 10669 10669 10668 10667 10666 10665 10664 10662 10661 10659 10658 10656 10654 10652 10651 10649 10647 10645 10643 10641 10639 10637 10635 10632 10630 10627 10625 10622 10619 10616 10612 10609 10606 10603 10599 10595 10591 10587 10583 10579 10575 10570 10565 10560 10555 10550 10545 10540 10534
10667 10667 10666 10666 10665 10664 10663 10663 10662 10660 10659 10657 10655 10654 10652 10650 10648 10646 10645 10643 10641 10639 10636 10634 10632 10630 10627 10625 10622 10619 10616 10613 10610 10607 10604 10600 10597 10593 10589 10585 10581 10577 10572 10568 10563 10558 10553 10548 10543 10537 10532 10526
10663 10663 10662 10662 10661 10660 10659 10659 10658 10656 10655 10653 10651 10649 10647 10646 10644 10642 10640 10638 10636 10634 10632 10629 10627 10624 10622 10619 10617 10614 10611 10607 10604 10601 10597 10594 10590 10587 10583 10579 10575 10570 10565 10560 10555 10550 10545 10540 10534 10529 10523 10517
10659 10658 10658 10658 10657 10656 10655 10654 10654 10652 10651 10649 10647 10645 10643 10641 10639 10637 10635 10633 10631 10629 10627 10624 10622 10619 10616 10613 10611 10608 10605 10602 10598 10595 10591 10588 10584 10581 10577 10572 10568 10563 10558 10553 10548 10543 10537 10532 10527 10521 10515 10509
10655 10654 10654 10653 10653 10652 10651 10650 10649 10648 10646 10644 10642 10641 10639 10637 10635 10633 10630 10628 10626 10624 10622 10619 10616 10613 10610 10608 10605 10602 10599 10596 10592 10589 10585 10582 10578 10574 10570 10565 10561 10556 10551 10546 10540 10534 10529 10523 10518 10513 10507 10500
10650 10650 10649 10649 10648 10647 10647 10646 10645 10644 10642 10640 10638 10636 10634 10632 10630 10628 10626 10623 10621 10619 10617 10614 10611 10608 10605 10602 10599 10596 10593 10590 10586 10583 10579 10576 10572 10568 10563 10559 10554 10549 10544 10539 10533 10527 10522 10516 10510 10504 10498 10491
10645 10645 10645 10644 10644 10643 10642 10641 10640 10639 10637 10635 10633 10631 10629 10627 10625 10623 10621 10618 10616 10614 10612 10609 10606 10603 10600 10596 10593 10590 10587 10584 10580 10577 10573 10569 10565 10561 10556 10552 10547 10542 10537 10531 10525 10520 10514 10508 10502 10496 10490 10483
10640 10640 10640 10640 10639 10638 10637 10636 10636 10634 10633 10631 10629 10627 10625 10622 10620 10618 10615 10613 10611 10609 10606 10604 10600 10597 10594 10591 10587 10584 10581 10578 10574 10570 10566 10563 10559 10554 10550 10545 10540 10535 10529 10524 10518 10512 10506 10499 10493 10486 10480 10474
10636 10636 10635 10635 10634 10634 10633 10632 10631 10629 10628 10626 10624 10622 10620 10617 10615 10612 10610 10607 10605 10603 10601 10598 10595 10592 10589 10585 10582 10579 10576 10572 10568 10564 10560 10556 10552 10547 10543 10538 10533 10528 10522 10517 10512 10506 10500 10493 10487 10480 10473 10466
10631 10631 10630 10630 10629 10629 10628 10627 10626 10624 10623 10621 10619 10617 10615 10612 10610 10607 10605 10602 10600 10598 10595 10592 10589 10586 10583 10579 10576 10573 10569 10566 10562 10558 10553 10549 10545 10540 10535 10530 10525 10520 10515 10510 10504 10498 10492 10486 10480 10473 10466 10459
10626 10626 10626 10625 10625 10624 10623 10622 10621 10619 10618 10616 10614 10612 10610 10607 10604 10602 10599 10596 10594 10592 10589 10586 10583 10580 10577 10574 10570 10567 10563 10560 10556 10551 10547 10542 10537 10533 10528 10523 10517 10512 10507 10501 10495 10489 10483 10477 10471 10464 10456 10448
10622 10621 10621 10620 10620 10619 10618 10617 10616 10614 10612 10611 10609 10607 10605 10602 10599 10596 10593 10591 10589 10586 10583 10580 10577 10574 10571 10568 10564 10560 10557 10553 10549 10544 10540 10535 10530 10525 10520 10514 10509 10504 10498 10492 10486 10479 10473 10467 10460 10452 10444 10435
10617 10616 10616 10615 10615 10614 10613 10612 10610 10609 10607 10605 10604 10602 10599 10597 10593 10590 10587 10585 10583 10580 10577 10574 10571 10568 10564 10561 10558 10554 10550 10546 10542 10537 10533 10528 10522 10517 10512 10506 10501 10495 10489 10483 10477 10470 10463 10456 10449 10441 10432 10423